FDX430 KATL-KMCO

Flight info

Callsign FDX430
Flight time 0h 58m
Altitude 35000
Route SMLTZ3 WALET ZJAYX GRNCH5
Aircraft MD11/H-SDE1E2E3FGHIJ2J3J4J5M1RWXY/LB1D1

Departure

Time 2026-05-04 23:45
Airport Hartsfield Jackson Atlanta International Airport (KATL)

Arrival

Time 2026-05-05 00:44
Airport Orlando International Airport (KMCO)
Time Latitude Longitude Altitude Speed Heading
2026-05-04 23:20 33.65511 -84.41654 1014 ft 0 kts 32°
2026-05-04 23:34 33.65509 -84.41655 1014 ft 2 kts 32°
2026-05-04 23:35 33.65495 -84.41666 1014 ft 2 kts 33°
2026-05-04 23:35 33.65482 -84.41677 1014 ft 2 kts 34°
2026-05-04 23:35 33.65468 -84.41688 1014 ft 2 kts 36°
2026-05-04 23:35 33.65455 -84.41700 1014 ft 2 kts 38°
2026-05-04 23:36 33.65442 -84.41713 1014 ft 2 kts 44°
2026-05-04 23:36 33.65431 -84.41727 1014 ft 2 kts 57°
2026-05-04 23:36 33.65424 -84.41743 1014 ft 1 kts 72°
2026-05-04 23:36 33.65422 -84.41748 1014 ft 0 kts 71°
2026-05-04 23:38 33.65423 -84.41746 1014 ft 1 kts 71°
2026-05-04 23:38 33.65423 -84.41714 1014 ft 7 kts 99°
2026-05-04 23:38 33.65397 -84.41647 1014 ft 9 kts 121°
2026-05-04 23:38 33.65364 -84.41583 1014 ft 9 kts 122°
2026-05-04 23:39 33.65330 -84.41518 1014 ft 9 kts 122°
2026-05-04 23:39 33.65294 -84.41448 1014 ft 10 kts 122°
2026-05-04 23:39 33.65255 -84.41376 1014 ft 10 kts 127°
2026-05-04 23:39 33.65207 -84.41356 1014 ft 4 kts 178°
2026-05-04 23:40 33.65205 -84.41356 1014 ft 3 kts 178°
2026-05-04 23:40 33.65150 -84.41350 1014 ft 7 kts 162°
2026-05-04 23:40 33.65127 -84.41316 1014 ft 5 kts 117°
2026-05-04 23:41 33.65119 -84.41264 1013 ft 10 kts 93°
2026-05-04 23:41 33.65119 -84.41159 1013 ft 13 kts 90°
2026-05-04 23:41 33.65119 -84.41051 1014 ft 12 kts 90°
2026-05-04 23:41 33.65086 -84.40973 1014 ft 9 kts 148°
2026-05-04 23:42 33.65029 -84.40963 1014 ft 8 kts 179°
2026-05-04 23:42 33.64953 -84.40963 1013 ft 15 kts 180°
2026-05-04 23:42 33.64856 -84.40929 1013 ft 13 kts 129°
2026-05-04 23:42 33.64845 -84.40828 1013 ft 14 kts 92°
2026-05-04 23:43 33.64846 -84.40714 1014 ft 13 kts 90°
2026-05-04 23:43 33.64832 -84.40603 1014 ft 13 kts 119°
2026-05-04 23:43 33.64777 -84.40565 1013 ft 7 kts 175°
2026-05-04 23:43 33.64737 -84.40567 1012 ft 8 kts 183°
2026-05-04 23:44 33.64695 -84.40592 1011 ft 6 kts 223°
2026-05-04 23:44 33.64680 -84.40636 1011 ft 5 kts 264°
2026-05-04 23:44 33.64681 -84.40652 1011 ft 6 kts 270°
2026-05-04 23:44 33.64679 -84.41098 1014 ft 99 kts 270°
2026-05-04 23:45 33.64680 -84.42251 1028 ft 171 kts 269°
2026-05-04 23:45 33.64683 -84.43715 1810 ft 176 kts 267°
2026-05-04 23:45 33.64717 -84.45220 2741 ft 184 kts 275°
2026-05-04 23:45 33.64941 -84.46734 3650 ft 185 kts 278°
2026-05-04 23:46 33.65207 -84.48283 4386 ft 200 kts 278°
2026-05-04 23:46 33.65513 -84.50074 4562 ft 235 kts 279°
2026-05-04 23:46 33.65863 -84.52077 4698 ft 261 kts 279°
2026-05-04 23:46 33.66251 -84.54249 5276 ft 268 kts 279°
2026-05-04 23:47 33.66616 -84.56448 6037 ft 269 kts 275°
2026-05-04 23:47 33.66554 -84.58673 6815 ft 267 kts 254°
2026-05-04 23:47 33.65872 -84.60735 7546 ft 267 kts 242°
2026-05-04 23:47 33.64979 -84.62703 8318 ft 269 kts 239°
2026-05-04 23:48 33.64014 -84.64642 9074 ft 272 kts 234°
2026-05-04 23:48 33.62670 -84.66227 9828 ft 274 kts 217°
2026-05-04 23:48 33.61057 -84.67478 10539 ft 278 kts 212°
2026-05-04 23:48 33.59370 -84.68637 11224 ft 282 kts 208°
2026-05-04 23:49 33.57503 -84.69421 11918 ft 288 kts 190°
2026-05-04 23:49 33.55475 -84.69432 12551 ft 296 kts 176°
2026-05-04 23:49 33.53429 -84.69090 13236 ft 301 kts 173°
2026-05-04 23:49 33.51350 -84.68665 13934 ft 305 kts 173°
2026-05-04 23:50 33.49247 -84.68228 14571 ft 308 kts 173°
2026-05-04 23:50 33.47123 -84.67796 15216 ft 311 kts 173°
2026-05-04 23:50 33.44979 -84.67369 15850 ft 314 kts 174°
2026-05-04 23:50 33.42829 -84.66847 16463 ft 319 kts 166°
2026-05-04 23:51 33.40769 -84.65635 16616 ft 344 kts 147°
2026-05-04 23:51 33.38893 -84.63709 16761 ft 366 kts 139°
2026-05-04 23:51 33.37055 -84.61483 16897 ft 385 kts 136°
2026-05-04 23:51 33.35163 -84.59108 17037 ft 403 kts 136°
2026-05-04 23:52 33.33207 -84.56665 17571 ft 409 kts 136°
2026-05-04 23:52 33.31243 -84.54246 18170 ft 412 kts 137°
2026-05-04 23:52 33.29217 -84.51787 18717 ft 417 kts 137°
2026-05-04 23:52 33.27159 -84.49315 19219 ft 421 kts 138°
2026-05-04 23:53 33.25077 -84.46829 19727 ft 425 kts 138°
2026-05-04 23:53 33.22973 -84.44326 20223 ft 429 kts 138°
2026-05-04 23:53 33.20843 -84.41796 20737 ft 433 kts 138°
2026-05-04 23:53 33.18697 -84.39251 21222 ft 437 kts 138°
2026-05-04 23:54 33.16525 -84.36676 21747 ft 442 kts 138°
2026-05-04 23:54 33.14340 -84.34087 22247 ft 446 kts 138°
2026-05-04 23:54 33.12128 -84.31468 22733 ft 450 kts 138°
2026-05-04 23:54 33.09893 -84.28824 23217 ft 454 kts 138°
2026-05-04 23:55 33.07648 -84.26168 23763 ft 457 kts 138°
2026-05-04 23:55 33.05388 -84.23498 24223 ft 460 kts 138°
2026-05-04 23:55 33.00733 -84.18284 25078 ft 464 kts 147°
2026-05-04 23:56 32.97974 -84.16329 25517 ft 461 kts 159°
2026-05-04 23:56 32.95002 -84.14902 25949 ft 461 kts 165°
2026-05-04 23:56 32.91946 -84.13703 26401 ft 463 kts 166°
2026-05-04 23:56 32.88863 -84.12558 26833 ft 466 kts 166°
2026-05-04 23:57 32.85761 -84.11386 27249 ft 469 kts 166°
2026-05-04 23:57 32.82649 -84.10169 27697 ft 473 kts 165°
2026-05-04 23:57 32.79523 -84.08909 28122 ft 476 kts 165°
2026-05-04 23:57 32.76377 -84.07617 28548 ft 479 kts 165°
2026-05-04 23:58 32.73215 -84.06307 28845 ft 484 kts 165°
2026-05-04 23:58 32.70027 -84.04983 29180 ft 488 kts 165°
2026-05-04 23:58 32.66810 -84.03647 29577 ft 491 kts 165°
2026-05-04 23:58 32.63575 -84.02305 29989 ft 494 kts 165°
2026-05-04 23:59 32.60322 -84.00958 30351 ft 497 kts 165°
2026-05-04 23:59 32.57059 -83.99609 30764 ft 498 kts 165°
2026-05-04 23:59 32.53784 -83.98256 31156 ft 499 kts 166°
2026-05-04 23:59 32.50500 -83.96900 31562 ft 500 kts 166°
2026-05-05 00:00 32.47213 -83.95545 31896 ft 502 kts 166°
2026-05-05 00:00 32.40602 -83.92827 32451 ft 508 kts 167°
2026-05-05 00:00 32.37268 -83.91425 32786 ft 511 kts 164°
2026-05-05 00:01 32.34066 -83.89568 33332 ft 514 kts 154°
2026-05-05 00:01 32.31074 -83.87219 33721 ft 518 kts 148°
2026-05-05 00:01 32.28206 -83.84611 34041 ft 521 kts 146°
2026-05-05 00:01 32.25372 -83.81907 34326 ft 523 kts 145°
2026-05-05 00:02 32.22536 -83.79207 34597 ft 523 kts 146°
2026-05-05 00:02 32.19675 -83.76539 34863 ft 524 kts 146°
2026-05-05 00:02 32.16787 -83.73902 34978 ft 527 kts 147°
2026-05-05 00:03 32.10878 -83.68618 35042 ft 537 kts 148°
2026-05-05 00:03 32.04961 -83.63361 35045 ft 534 kts 148°
2026-05-05 00:04 31.99029 -83.58090 35041 ft 534 kts 148°
2026-05-05 00:04 31.93109 -83.52837 35048 ft 534 kts 148°
2026-05-05 00:05 31.87193 -83.47591 35036 ft 531 kts 148°
2026-05-05 00:05 31.81284 -83.42365 35055 ft 533 kts 148°
2026-05-05 00:06 31.75349 -83.37124 35061 ft 533 kts 148°
2026-05-05 00:06 31.69424 -83.31899 35063 ft 532 kts 148°
2026-05-05 00:07 31.63347 -83.27003 35034 ft 526 kts 156°
2026-05-05 00:07 31.56868 -83.23202 35033 ft 525 kts 162°
2026-05-05 00:08 31.50212 -83.19618 35041 ft 527 kts 162°
2026-05-05 00:08 31.43580 -83.15954 35045 ft 527 kts 161°
2026-05-05 00:09 31.36994 -83.12242 35048 ft 522 kts 161°
2026-05-05 00:09 31.30490 -83.08563 35030 ft 513 kts 161°
2026-05-05 00:10 31.24072 -83.04951 35035 ft 512 kts 161°
2026-05-05 00:10 31.18738 -83.01959 35037 ft 512 kts 161°
2026-05-05 00:11 31.12318 -82.98361 35042 ft 512 kts 161°
2026-05-05 00:11 31.05900 -82.94767 35049 ft 512 kts 161°
2026-05-05 00:12 30.99478 -82.91176 35045 ft 513 kts 161°
2026-05-05 00:12 30.93029 -82.87576 35050 ft 514 kts 161°
2026-05-05 00:13 30.86665 -82.83723 35077 ft 520 kts 153°
2026-05-05 00:13 30.80819 -82.78674 35079 ft 526 kts 146°
2026-05-05 00:14 30.75170 -82.73297 35071 ft 522 kts 146°
2026-05-05 00:14 30.69549 -82.68051 35105 ft 522 kts 147°
2026-05-05 00:15 30.63834 -82.62836 35110 ft 522 kts 147°
2026-05-05 00:15 30.58116 -82.57654 35109 ft 522 kts 148°
2026-05-05 00:16 30.52389 -82.52466 35137 ft 522 kts 147°
2026-05-05 00:16 30.46661 -82.47281 35132 ft 522 kts 148°
2026-05-05 00:17 30.40940 -82.42108 35129 ft 522 kts 148°
2026-05-05 00:17 30.35221 -82.36944 35138 ft 519 kts 148°
2026-05-05 00:18 30.29532 -82.31815 35139 ft 517 kts 148°
2026-05-05 00:18 30.23849 -82.26714 35127 ft 516 kts 149°
2026-05-05 00:19 30.17687 -82.22837 35112 ft 494 kts 171°
2026-05-05 00:19 30.11111 -82.21396 35098 ft 483 kts 181°
2026-05-05 00:20 30.04455 -82.20431 35093 ft 485 kts 180°
2026-05-05 00:20 30.01101 -82.19872 34943 ft 488 kts 179°
2026-05-05 00:20 29.97750 -82.19259 34685 ft 487 kts 179°
2026-05-05 00:20 29.94391 -82.18610 34266 ft 490 kts 178°
2026-05-05 00:21 29.91015 -82.17940 33686 ft 492 kts 178°
2026-05-05 00:21 29.87645 -82.17262 33023 ft 492 kts 178°
2026-05-05 00:21 29.84272 -82.16580 32451 ft 491 kts 178°
2026-05-05 00:21 29.80910 -82.15904 31874 ft 491 kts 178°
2026-05-05 00:22 29.77543 -82.15229 31293 ft 490 kts 178°
2026-05-05 00:22 29.74180 -82.14557 30745 ft 490 kts 178°
2026-05-05 00:22 29.70831 -82.13889 30157 ft 489 kts 178°
2026-05-05 00:22 29.67480 -82.13223 29507 ft 488 kts 178°
2026-05-05 00:23 29.64140 -82.12560 28904 ft 488 kts 177°
2026-05-05 00:23 29.60788 -82.11896 28318 ft 488 kts 177°
2026-05-05 00:23 29.57452 -82.11233 27714 ft 485 kts 176°
2026-05-05 00:23 29.54132 -82.10573 27146 ft 482 kts 176°
2026-05-05 00:24 29.50845 -82.09919 26562 ft 478 kts 176°
2026-05-05 00:24 29.47617 -82.09278 25998 ft 474 kts 176°
2026-05-05 00:24 29.44386 -82.08636 25529 ft 472 kts 176°
2026-05-05 00:24 29.41161 -82.07998 24945 ft 468 kts 176°
2026-05-05 00:25 29.37969 -82.07364 24494 ft 463 kts 175°
2026-05-05 00:25 29.34816 -82.06737 24245 ft 453 kts 175°
2026-05-05 00:25 29.31773 -82.06093 23897 ft 441 kts 172°
2026-05-05 00:25 29.28860 -82.04971 23251 ft 442 kts 161°
2026-05-05 00:26 29.26111 -82.03411 22585 ft 439 kts 155°
2026-05-05 00:26 29.23467 -82.01687 21956 ft 435 kts 153°
2026-05-05 00:26 29.20878 -81.99940 21339 ft 429 kts 153°
2026-05-05 00:26 29.18318 -81.98226 20734 ft 423 kts 154°
2026-05-05 00:27 29.15783 -81.96558 20152 ft 418 kts 154°
2026-05-05 00:27 29.13265 -81.94928 19571 ft 412 kts 154°
2026-05-05 00:27 29.10775 -81.93334 18997 ft 407 kts 154°
2026-05-05 00:27 29.08316 -81.91768 18429 ft 401 kts 153°
2026-05-05 00:28 29.06031 -81.90014 17816 ft 400 kts 144°
2026-05-05 00:28 29.03926 -81.87955 17232 ft 397 kts 140°
2026-05-05 00:28 29.01933 -81.85801 16631 ft 393 kts 138°
2026-05-05 00:28 28.99988 -81.83638 16165 ft 386 kts 137°
2026-05-05 00:29 28.98126 -81.81488 15956 ft 375 kts 134°
2026-05-05 00:29 28.96456 -81.79216 15878 ft 373 kts 130°
2026-05-05 00:29 28.94868 -81.76872 15828 ft 373 kts 129°
2026-05-05 00:29 28.93308 -81.74510 15768 ft 372 kts 128°
2026-05-05 00:30 28.91751 -81.72149 15707 ft 372 kts 128°
2026-05-05 00:30 28.90189 -81.69792 15634 ft 371 kts 129°
2026-05-05 00:30 28.88628 -81.67448 15567 ft 371 kts 129°
2026-05-05 00:30 28.87076 -81.65129 15136 ft 371 kts 129°
2026-05-05 00:31 28.85515 -81.62803 14659 ft 366 kts 129°
2026-05-05 00:31 28.83983 -81.60523 14337 ft 359 kts 128°
2026-05-05 00:31 28.82483 -81.58292 14191 ft 345 kts 128°
2026-05-05 00:31 28.81061 -81.56179 14069 ft 327 kts 129°
2026-05-05 00:32 28.79512 -81.54364 13958 ft 318 kts 144°
2026-05-05 00:32 28.77665 -81.53002 13918 ft 316 kts 152°
2026-05-05 00:32 28.75734 -81.51800 13872 ft 316 kts 153°
2026-05-05 00:32 28.73777 -81.50633 13456 ft 320 kts 153°
2026-05-05 00:33 28.71818 -81.49467 12918 ft 315 kts 153°
2026-05-05 00:33 28.69890 -81.48316 12420 ft 310 kts 153°
2026-05-05 00:33 28.67988 -81.47175 11926 ft 307 kts 154°
2026-05-05 00:33 28.66102 -81.46042 11443 ft 305 kts 154°
2026-05-05 00:34 28.64227 -81.44911 10984 ft 304 kts 154°
2026-05-05 00:34 28.62361 -81.43785 10527 ft 302 kts 154°
2026-05-05 00:34 28.60460 -81.42917 10271 ft 293 kts 169°
2026-05-05 00:34 28.58532 -81.42541 10127 ft 278 kts 176°
2026-05-05 00:35 28.56635 -81.42390 9790 ft 270 kts 181°
2026-05-05 00:35 28.54785 -81.42368 9324 ft 260 kts 183°
2026-05-05 00:35 28.53012 -81.42371 8878 ft 250 kts 183°
2026-05-05 00:35 28.51281 -81.42379 8449 ft 249 kts 183°
2026-05-05 00:36 28.49555 -81.42386 8059 ft 247 kts 182°
2026-05-05 00:36 28.47848 -81.42391 7655 ft 245 kts 183°
2026-05-05 00:36 28.46153 -81.42394 7259 ft 242 kts 182°
2026-05-05 00:36 28.45606 -81.42395 7131 ft 241 kts 183°
2026-05-05 00:37 28.42814 -81.42398 6414 ft 237 kts 182°
2026-05-05 00:37 28.41175 -81.42399 5964 ft 235 kts 182°
2026-05-05 00:37 28.39541 -81.42401 5534 ft 234 kts 181°
2026-05-05 00:37 28.37915 -81.42402 5085 ft 234 kts 181°
2026-05-05 00:38 28.36282 -81.42404 4635 ft 233 kts 180°
2026-05-05 00:38 28.34684 -81.42397 4219 ft 225 kts 178°
2026-05-05 00:38 28.33159 -81.42374 3837 ft 221 kts 176°
2026-05-05 00:38 28.31616 -81.42345 3479 ft 222 kts 175°
2026-05-05 00:39 28.30090 -81.42304 3118 ft 216 kts 171°
2026-05-05 00:39 28.28731 -81.41717 3009 ft 209 kts 138°
2026-05-05 00:39 28.27940 -81.40386 3000 ft 206 kts 104°
2026-05-05 00:39 28.27895 -81.38799 3007 ft 195 kts 84°
2026-05-05 00:40 28.28068 -81.37323 3004 ft 186 kts 83°
2026-05-05 00:40 28.28242 -81.35864 3009 ft 186 kts 83°
2026-05-05 00:40 28.28511 -81.34435 2983 ft 187 kts 66°
2026-05-05 00:40 28.29371 -81.33372 2732 ft 184 kts 32°
2026-05-05 00:41 28.30578 -81.32848 2396 ft 190 kts 22°
2026-05-05 00:41 28.31896 -81.32592 2058 ft 187 kts
2026-05-05 00:41 28.33154 -81.32566 1801 ft 182 kts
2026-05-05 00:41 28.34462 -81.32603 1448 ft 192 kts
2026-05-05 00:42 28.35781 -81.32619 1213 ft 182 kts
2026-05-05 00:42 28.37034 -81.32652 983 ft 182 kts
2026-05-05 00:42 28.38269 -81.32652 744 ft 173 kts
2026-05-05 00:42 28.39450 -81.32664 508 ft 167 kts
2026-05-05 00:43 28.40637 -81.32669 336 ft 175 kts
2026-05-05 00:43 28.41817 -81.32671 135 ft 156 kts
2026-05-05 00:43 28.42757 -81.32675 110 ft 113 kts
2026-05-05 00:43 28.43389 -81.32683 115 ft 58 kts 359°
2026-05-05 00:44 28.43621 -81.32691 111 ft 17 kts 347°
2026-05-05 00:44 28.43670 -81.32785 109 ft 14 kts 272°
2026-05-05 00:44 28.43670 -81.32858 111 ft 0 kts 269°
2026-05-05 00:45 28.43670 -81.32860 111 ft 1 kts 269°
2026-05-05 00:45 28.43662 -81.32907 112 ft 2 kts 243°
2026-05-05 00:45 28.43637 -81.32926 110 ft 5 kts 202°
2026-05-05 00:45 28.43596 -81.32927 112 ft 7 kts 180°
2026-05-05 00:46 28.43526 -81.32928 114 ft 13 kts 180°
2026-05-05 00:46 28.43433 -81.32928 114 ft 13 kts 180°
2026-05-05 00:46 28.43344 -81.32927 114 ft 13 kts 179°
2026-05-05 00:46 28.43255 -81.32926 115 ft 13 kts 179°
2026-05-05 00:47 28.43172 -81.32924 117 ft 11 kts 179°
2026-05-05 00:47 28.43092 -81.32923 115 ft 12 kts 179°
2026-05-05 00:47 28.43004 -81.32922 115 ft 14 kts 180°
2026-05-05 00:47 28.42898 -81.32922 112 ft 16 kts 180°
2026-05-05 00:48 28.42779 -81.32921 111 ft 17 kts 179°
2026-05-05 00:48 28.42658 -81.32920 111 ft 18 kts 179°
2026-05-05 00:48 28.42519 -81.32918 107 ft 22 kts 179°
2026-05-05 00:48 28.42358 -81.32916 108 ft 23 kts 180°
2026-05-05 00:49 28.42202 -81.32916 110 ft 22 kts 179°
2026-05-05 00:49 28.42047 -81.32912 110 ft 22 kts 178°
2026-05-05 00:49 28.41908 -81.32912 111 ft 18 kts 180°
2026-05-05 00:49 28.41796 -81.32910 115 ft 15 kts 179°
2026-05-05 00:50 28.41698 -81.32909 115 ft 14 kts 179°
2026-05-05 00:50 28.41596 -81.32907 114 ft 15 kts 179°
2026-05-05 00:50 28.41509 -81.32942 112 ft 13 kts 222°
2026-05-05 00:50 28.41451 -81.33008 114 ft 12 kts 228°
2026-05-05 00:51 28.41408 -81.33088 110 ft 13 kts 258°
2026-05-05 00:51 28.41405 -81.33194 112 ft 14 kts 269°
2026-05-05 00:51 28.41404 -81.33308 111 ft 14 kts 269°
2026-05-05 00:51 28.41403 -81.33422 110 ft 15 kts 269°
2026-05-05 00:52 28.41419 -81.33489 108 ft 4 kts 325°
2026-05-05 00:52 28.41441 -81.33490 109 ft 3 kts 358°
2026-05-05 00:52 28.41476 -81.33491 109 ft 0 kts 360°